Location: Maccacari
(45.1333°N, 11.1333°E)
Time: 10:55:03
(UTC+00:00)

Vanguard 2 - Pass Details

Date: 24 January 2021
Orbit: 552 x 2938 km, 32.9° (Epoch: 24 February)

Event Time Altitude Azimuth Distance (km) Brightness Sun altitude
Rises 20:57:17 0° 250° (WSW) 3,456 11.3 -49.4°
Enters shadow 20:57:42 - 248° (WSW) 3,372 11.2 -49.4°
Reaches altitude 10° 21:01:36 10° 219° (SW) 2,947 - -50.1°
Maximum altitude 21:04:01 12° 199° (SSW) 3,060 - -50.4°
Drops below altitude 10° 21:06:46 10° 180° (S) 3,486 - -50.8°
Sets 21:13:25 0° 154° (SSE) 5,145 - -51.8°
